Weather History for Akron, CO

Change the Weather History Date:

Sunday, October 31, 2010

  Actual Average Record
Temperature  
Mean Temperature 49 °F 45 °F  
Max Temperature 61 °F 58 °F 81 °F (1950)
Min Temperature 37 °F 32 °F 4 °F (1991)
Degree Days  
Heating Degree Days 16    
Month to date heating degree days  
Cooling Degree Days 0    
Month to date cooling degree days  
Moisture  
Dew Point 29 °F    
Average Humidity 49    
Maximum Humidity 62    
Minimum Humidity 31    
Precipitation  
Precipitation 0.00 in 0.02 in 0.58 in (1972)
Month to date precipitation 1.11  
Year to date precipitation 15.76  
Sea Level Pressure  
Sea Level Pressure 30.02 in    
Wind  
Wind Speed 9 mph (SE)    
Max Wind Speed 14 mph    
Max Gust Speed -    
Visibility 10 miles    
Events      
T = Trace of Precipitation, MM = Missing Value Source: NWS Daily Summary

Daily Weather History Graph

Daily Weather History Graph

Search for Another Location

Airport:

Trip Planner

Search our weather history database for the weather conditions in past years. The results will help you decide how hot, cold, wet, or windy it might be!

Date:

Astronomy

Oct. 31, 2010 Rise Set
Actual Time 7:21 AM MDT 5:51 PM MDT
Civil Twilight 6:52 AM MDT 6:19 PM MDT
Nautical Twilight 6:20 AM MDT 6:51 PM MDT
Astronomical Twilight 5:49 AM MDT 7:22 PM MDT
Moon 12:49 AM MDT (10/31) 2:29 PM MDT (10/31)
Length of Visible Light 11h 26m
Length of Day
10h 30m
Last Quarter, 36% of the Moon is Illuminated
Oct 31
Last Quarter
Nov 5
New
Nov 13
First Quarter
Nov 21
Full
Nov 28
Last Quarter

Hourly Weather History & Observations

Time (MDT) Temp. Windchill Dew Point Humidity Pressure Visibility Wind Dir Wind Speed Gust Speed Precip Events Conditions
12:53 AM 48.9 °F - 25.0 °F 39% 29.86 in 10.0 mi ESE 12.7 mph - N/A   Mostly Cloudy
1:53 AM 45.0 °F 40.1 °F 26.1 °F 48% 29.89 in 10.0 mi SE 9.2 mph - N/A   Mostly Cloudy
3:53 AM 44.1 °F 38.1 °F 26.1 °F 49% 29.88 in 10.0 mi SSE 11.5 mph - N/A   Mostly Cloudy
4:53 AM 41.0 °F 33.5 °F 26.1 °F 55% 29.89 in 10.0 mi SE 13.8 mph - N/A   Clear
6:53 AM 37.0 °F 31.6 °F 25.0 °F 62% 30.00 in 10.0 mi SE 6.9 mph - N/A   Overcast
7:53 AM 39.0 °F 34.8 °F 26.1 °F 60% 30.03 in 10.0 mi SSE 5.8 mph - N/A   Overcast
8:53 AM 41.0 °F 35.2 °F 28.9 °F 62% 30.07 in 10.0 mi ESE 9.2 mph - N/A   Mostly Cloudy
9:53 AM 43.0 °F 38.8 °F 28.9 °F 58% 30.09 in 10.0 mi South 6.9 mph - N/A   Mostly Cloudy
10:53 AM 46.9 °F - 30.0 °F 52% 30.06 in 10.0 mi ESE 5.8 mph - N/A   Overcast
11:53 AM 51.1 °F - 30.9 °F 46% 30.06 in 10.0 mi Variable 3.5 mph - N/A   Mostly Cloudy
12:53 PM 54.0 °F - 32.0 °F 43% 30.01 in 10.0 mi Calm Calm - N/A   Mostly Cloudy
1:53 PM 60.1 °F - 32.0 °F 35% 29.97 in 10.0 mi NE 11.5 mph - N/A   Clear
2:53 PM 61.0 °F - 30.9 °F 32% 29.98 in 10.0 mi North 4.6 mph - N/A   Clear
3:53 PM 61.0 °F - 30.0 °F 31% 29.99 in 10.0 mi North 5.8 mph - N/A   Mostly Cloudy
4:53 PM 60.1 °F - 30.0 °F 32% 30.02 in 10.0 mi Calm Calm - N/A   Clear
5:53 PM 55.0 °F - 28.9 °F 37% 30.06 in 10.0 mi SE 3.5 mph - N/A   Clear
6:53 PM 50.0 °F - 30.9 °F 48% 30.10 in 10.0 mi SSE 10.4 mph - N/A   Clear
7:53 PM 46.0 °F 40.6 °F 30.9 °F 56% 30.12 in 10.0 mi South 11.5 mph - N/A   Clear
8:53 PM 44.1 °F 38.6 °F 30.9 °F 60% 30.14 in 10.0 mi South 10.4 mph - N/A   Mostly Cloudy
9:53 PM 45.0 °F 39.3 °F 30.9 °F 58% 30.16 in 10.0 mi South 11.5 mph - N/A   Overcast
10:53 PM 45.0 °F 39.7 °F 30.9 °F 58% 30.16 in 10.0 mi SSW 10.4 mph - N/A   Overcast
11:53 PM 44.1 °F 39.0 °F 30.9 °F 60% 30.13 in 10.0 mi SSW 9.2 mph - N/A   Scattered Clouds